Skip Page Navigation
NASA JPL Caltech
NASA Logo - Jet Propulsion Laboratory + View the NASA Portal
+ Near-Earth Object (NEO) Program
Search JPL
JPL Home Earth Solar System Stars & Galaxies Technology
JPL Solar System Dynamics
BODIES ORBITS EPHEMERIDES TOOLS PHYSICAL DATA DISCOVERY FAQ SITE MAP
JPL Small-Body Database Browser
Search: [ help ]  
30847 Lampert (1991 RC5)
Classification: Main-belt Asteroid          SPK-ID: 2030847
Ephemeris | Orbit Diagram | Orbital Elements | Physical Parameters | Discovery Circumstances ]

[ show orbit diagram ]
Orbital Elements at Epoch 2456400.5 (2013-Apr-18.0) TDB
Reference: MPO257079 (heliocentric ecliptic J2000)
 Element Value Uncertainty (1-sigma)   Units 
e 0.0976413 n/a  
a 3.0069907 n/a AU
q 2.7133842 n/a AU
i 10.87886 n/a deg
node 0.55110 n/a deg
peri 71.42545 n/a deg
M 357.70559 n/a deg
tp 2456412.6385017
(2013-Apr-30.13850170)
n/a JED
period 1904.5683240
5.21
n/a
n/a
d
yr
n 0.18901921 n/a deg/d
Q 3.3005972 n/a AU
  Orbit Determination Parameters
   # obs. used (total)      850  
   first obs. used      1991-??-??  
   last obs. used      2013-03-01  
   # oppositions      13  
   planetary ephem.      DE403  
   condition code      0  
   fit RMS      0.52  
   data source      MPC:mpn  
   producer      MPCLINUX  

Additional Information
 T_jup = 3.216 

Ephemeris | Orbit Diagram | Orbital Elements | Physical Parameters | Discovery Circumstances ]

Physical Parameter Table
Parameter Symbol Value Units Sigma Reference Notes
absolute magnitude H 12.6 mag n/a PDS3 (MPO 18558)  

30847 Lampert           Discovered 1991 Sept. 13 by L. D. Schmadel and F. Börngen at Tautenburg.
Klaus Lampert (b. 1943) is a very experienced amateur radio operator whose call sign DK6IP is well known by a lot of friends all over the world. He made confirmed shortwave contacts with operators in all countries of the world. The name was suggested by DK8UH, the first discoverer.
NOTE: some special characters may not display properly (any characters within {} are an attempt to place the proper accent above a character)
Reference: 20090607/MPCPages.arcLast Updated: 2009-06-08

Alternate Designations
 1991 RC5 = 1996 TQ53 
Ephemeris | Orbit Diagram | Orbital Elements | Physical Parameters | Discovery Circumstances ]
ABOUT SSD CREDITS/AWARDS PRIVACY/COPYRIGHT GLOSSARY LINKS
FirstGov 2013-May-23 14:32 UT
(server date/time)  
NASA Home Page
Site Manager:   Donald K. Yeomans
Webmaster  Alan B. Chamberlin